AirNav   Phillips 66 Aviation Fuel
 
 390 users online  

2O3 Angwin Airport-Parrett Field
Angwin, California, USA

GOING TO ANGWIN?


FAA INFORMATION EFFECTIVE 08 NOVEMBER 2018

Location

FAA Identifier: 2O3
Lat/Long: 38-34-48.1000N / 122-26-07.7000W
38-34.801667N / 122-26.128333W
38.5800278 / -122.4354722
(estimated)
Elevation: 1875 ft. / 572 m (estimated)
Variation: 16E (1985)
From city: 1 mile E of ANGWIN, CA
Time zone: UTC -8 (UTC -7 during Daylight Saving Time)
Zip code: 94508

Airport Operations

Airport use: Open to the public
Activation date: 03/1961
Control tower: no
ARTCC: OAKLAND CENTER
FSS: OAKLAND FLIGHT SERVICE STATION
NOTAMs facility: OAK (NOTAM-D service available)
Attendance: SUN-FRI 0800-1700
Pattern altitude: 2725 ft. MSL
Wind indicator: lighted
Segmented circle: yes
Lights: ACTVT LIRL RY 16/34 AND TRVC RYS 16 & 34 - CTAF.

Airport Communications

CTAF/UNICOM: 123.0
WX ASOS at STS (18 nm W): 120.55 (707-573-8393)

Nearby radio navigation aids

VOR radial/distance  VOR name  Freq  Var
STSr060/18.1SANTA ROSA VOR/DME113.0016E
SGDr336/24.2SCAGGS ISLAND VORTAC112.1017E
ILAr195/35.1WILLIAMS VORTAC114.4018E
PYEr017/36.3POINT REYES VOR/DME113.7017E
CCRr313/37.0CONCORD VOR/DME117.0017E

Airport Services

Fuel available: 100LL
Parking: tiedowns
Airframe service: MAJOR
Powerplant service: MAJOR
Bottled oxygen: NONE
Bulk oxygen: HIGH/LOW

Runway Information

Runway 16/34

Dimensions: 3217 x 50 ft. / 981 x 15 m
Surface: asphalt, in fair condition
Runway edge lights: low intensity
Gradient: N
RUNWAY 16  RUNWAY 34
Latitude: 38-35.065500N38-34.537833N
Longitude: 122-26.162333W122-26.095500W
Elevation: 1875.0 ft.1841.0 ft.
Gradient: 0.8%1.1% UP
Traffic pattern: leftright
Markings: basic, in good conditionbasic, in good condition
Visual slope indicator: tri-color VASI on left (5.00 degrees glide path)tri-color VASI on right (5.00 degrees glide path)
Runway end identifier lights: nono
Obstructions: 50 ft. tree, 1000 ft. from runway, 210 ft. left of centerline, 16:1 slope to clear
RWY 16 FENCE IN PRIMARY SFC 100 FT L AND 86 FT R OF CNTRLN PARALLEL TO RWY.
100 ft. trees, 2100 ft. from runway, 330 ft. right of centerline, 19:1 slope to clear

Airport Ownership and Management from official FAA records

Ownership: Privately-owned
Owner: PACIFIC UNION COLLEGE
1 ANGWIN AVENUE
ANGWIN, CA 94508
Phone 707-965-6219
Manager: GEOFFREY HILTON
1 ANGWIN AVENUE
ANGWIN, CA 94508
Phone 707-965-6219

Airport Operational Statistics

Aircraft based on the field: 44
Single engine airplanes: 38
Multi engine airplanes: 4
Ultralights: 2
    
Aircraft operations: avg 27/day *
80% local general aviation
20% transient general aviation
* for 12-month period ending 31 December 2016

Instrument Procedures

There are no published instrument procedures at 2O3.

Some nearby airports with instrument procedures:

KSTS - Charles M Schulz - Sonoma County Airport (18 nm W)
O69 - Petaluma Municipal Airport (21 nm S)
KAPC - Napa County Airport (23 nm S)
KVCB - Nut Tree Airport (25 nm SE)
KDVO - Gnoss Field Airport (27 nm S)
 
Loc | Ops | Rwys | IFR | FBO | Links
Com | Nav | Svcs | Stats | Notes

Sonoma Jet Center
 
Area around 2O3 (Angwin Airport-Parrett Field)
 
Road maps at: MapQuest Bing Google
 
Aerial photo
WARNING: Photo may not be current or correct
Aerial photo of 2O3 (Angwin Airport-Parrett Field)
Photo courtesy of Pilot Getaways magazine
www.pilotgetaways.com/

Do you have a better or more recent aerial photo of Angwin Airport-Parrett Field that you would like to share? If so, please send us your photo.

 
Sectional chart

 
Airport distance calculator
Flying to Angwin Airport-Parrett Field? Find the distance to fly.

From to 2O3

Sunrise and sunset
Times for 21-Nov-2018
 Local
(UTC-8)
 Zulu
(UTC)
Morning civil twilight06:3114:31
Sunrise06:5914:59
Sunset16:5200:52
Evening civil twilight17:2101:21

Current date and time
Zulu (UTC)  21-Nov-2018 08:15:33
Local (UTC-8)  21-Nov-2018 00:15:33
 
METAR
KSTS 
19nm W 
707-573-8393
210753Z AUTO 00000KT 7SM FU OVC041 10/07 A2998 RMK AO2 SLP145 T01000072 401941017
KO69 
21nm S 
210755Z AUTO 00000KT 6SM HZ 12/08 A2999 RMK A01
HES 
22nm W 
SuperAWOS
210655Z AUTO 00000KT 10SM 11/04 A2999
KAPC 
24nm S 
210754Z AUTO 00000KT 6SM HZ OVC060 09/03 A3000 RMK AO2 SLP149 T00890033 401891006
KVCB 
26nm SE 
210753Z AUTO 00000KT 5SM HZ CLR 06/02 A3001 RMK AO2 SLP160 T00610022 401941006
KDVO 
27nm S 
210755Z AUTO 18004KT 6SM HZ BKN040 OVC049 11/08 A2999 RMK AO2
KEDU 
31nm E 
210800Z AUTO 00000KT 5SM CLR 07/02 A3000 RMK AO1
KSUU 
31nm SE 
210758Z AUTO 00000KT 1 7/8SM HZ BKN230 04/00 A3000 RMK AO2 SLP166 T00440000 402091010 $
TAF
KSTS 
19nm W 
210531Z 2106/2206 08003KT P6SM SCT050 OVC100 TEMPO 2108/2112 P6SM -SHRA BKN035 OVC050 FM211200 13004KT 6SM -RA BR BKN025 OVC040 TEMPO 2116/2120 4SM RA BKN022 OVC035 FM212300 21005KT 6SM BR VCSH OVC035 PROB30 2203/2206 -SHRA OVC020
NOTAMs
Click for the latest NOTAMs
NOTAMs are issued by the DoD/FAA and will open in a separate window not controlled by AirNav.

 

 
 

FBO, Fuel Providers, and Aircraft Ground Support

  
 Business Name 
 
 Contact 
 
 Services / Description 
 
Fuel Prices
 
Comments
  
PUC (Pacific Union College) Flight Center 707-965-6219
no information available

If you are affiliated with PUC (Pacific Union College) Flight Center and would like to show here your services, contact info, web link, logo, and more, click here
100LL
FS $4.99 
 Updated 16-Nov-2018
 
   write
FS=Full service
Update Fuel Prices
 

Would you like to see your business listed on this page?

 If your business provides an interesting product or service to pilots, flight crews, aircraft, or users of the Angwin Airport-Parrett Field, you should consider listing it here.  To start the listing process, click on the button below
 
Add a business
 

Other Pages about Angwin Airport-Parrett Field

www.down-and-locked.com/...
 
Update a link
 
Copyright © AirNav, LLC. All rights reserved. Privacy Policy  Contact